{"data":{"norad_id":64874,"intl_designator":"2025-154F","name":"PEXT (BARD)","alt_names":[],"object_type":"PAYLOAD","status":"ACTIVE","operator":null,"country":"US","launch_date":"2025-07-23","launch_site_code":"AFWTR","launch_vehicle":null,"mission":null,"orbit_class":"UNKNOWN","rcs_meters":null,"size_class":null,"mass_kg":null,"dimensions":null,"purposes":[],"wikipedia_slug":null,"has_3d_model":false,"image_url":null,"decayed_at":null,"tle_current":{"epoch":"2026-09-21T21:36:51.997248Z","epoch_age_seconds":50275,"freshness":"FRESH","line1":"1 64874U 25154F   26264.90060182  .00001760  00000+0  82618-4 0  9994","line2":"2 64874  97.3868 328.0741 0001671 340.5962  19.5209 15.20928758 64543","mean_motion":15.20928758,"eccentricity":0.0001671,"inclination_deg":97.3868,"raan_deg":328.0741,"arg_perigee_deg":340.5962,"mean_anomaly_deg":19.5209,"bstar":8.2618e-5,"rev_number":6454,"period_min":94.678990874864,"perigee_km":501.88800822573,"apogee_km":504.18769686145,"semimajor_km":6881.1748525436,"source":"CELESTRAK","updated_at":"2026-09-22T09:00:30.012429Z"}}}